Home   Weather   Aarau   Past weeks

Flag for Switzerland Past Weather in Aarau, Aargau, Switzerland — Yesterday and Last 2 Weeks

Now
22 °F

Cold.


Feels Like: 15 °F
Forecast: 12 / 24 °F
Wind: 6 mph from Northeast

Location: Wynau

Current Time: Jan 24, 2017 at 6:20:16 pm

Latest Report: Jan 24, 2017 at 5:00 pm


Visibility: N/A

Pressure: 30.38 "Hg

Humidity: 86%

Dew Point: 19 °F

Location of AarauLocation

Past Weather in Aarau — Graph

°F

Aarau Temperature Yesterday

Maximum temperature yesterday: 23 °F (at 3:00 pm)
Minimum temperature yesterday: 17 °F (at 8:00 am)
Average temperature yesterday: 19 °F

High & Low Weather Summary for the Past Weeks

 TemperatureHumidityPressure
High42 °F (Jan 13, 1:00 am)100% (Jan 11, 8:00 am)30.55 "Hg (Jan 11, 8:00 am)
Low17 °F (Jan 23, 8:00 am)64% (Jan 13, 9:00 am)29.57 "Hg (Jan 13, 1:00 am)
Average27 °F87%30.24 "Hg
* Reported Jan 9 4:00 pm — Jan 24 4:00 pm, Aarau, Weather by CustomWeather, © 2017

Note: Actual official high and low records may vary slightly from our data, if they occured in-between our weather recording intervals... More about our weather records

Advertising

Aarau Weather History for the Previous 24 Hours

Scroll right to see more
 ConditionsComfort  
Time TempWeatherWind HumidityBarometerVisibility
4:00 pm
Tue, Jan 24
22 °FCold.9 mph85%30.37 "HgN/A
3:00 pm22 °FCold.12 mph86%30.36 "HgN/A
2:00 pm23 °FCold.10 mph88%30.35 "HgN/A
1:00 pm22 °FCold.7 mph90%30.36 "HgN/A
12:00 pm22 °FCold.5 mph89%30.37 "HgN/A
11:00 am20 °FCold.2 mph91%30.39 "HgN/A
10:00 am21 °FCold.3 mph91%30.38 "HgN/A
9:00 am20 °FCold.3 mph92%30.37 "HgN/A
8:00 am20 °FCold.6 mph93%30.36 "HgN/A
7:00 am20 °FCold.6 mph93%30.35 "HgN/A
6:00 am20 °FCold.7 mph92%30.34 "HgN/A
5:00 am20 °FCold.8 mph94%30.34 "HgN/A
4:00 am20 °FCold.6 mph93%30.34 "HgN/A
3:00 am20 °FCold.5 mph93%30.34 "HgN/A
2:00 am20 °FCold.7 mph91%30.34 "HgN/A
1:00 am21 °FCold.7 mph94%30.33 "HgN/A
12:00 am21 °FCold.8 mph92%30.32 "HgN/A
11:00 pm
Mon, Jan 23
21 °FCold.8 mph93%30.32 "HgN/A
10:00 pm20 °FCold.8 mph96%30.32 "HgN/A
9:00 pm19 °FCold.7 mph97%30.32 "HgN/A
8:00 pm17 °FCold.5 mph98%30.33 "HgN/A
7:00 pm18 °FCold.6 mph98%30.32 "HgN/A
6:00 pm19 °FCold.6 mph96%30.31 "HgN/A
Weather by CustomWeather, © 2017

See weather overviewHow to use our weather pages